Time,TemperatureF,DewpointF,PressureIn,WindDirection,WindDirectionDegrees,WindSpeedMPH,WindSpeedGustMPH,Humidity,HourlyPrecipIn,Conditions,Clouds,dailyrainin,SoftwareType,DateUTC
2013-04-07 00:00:00,39.6,28.4,29.75,West,271,3.5,3.5,64,0.00,CLR,,0.00,WeatherDisplay:10.37,2013-04-07 06:00:00,
2013-04-07 00:05:00,39.3,28.5,29.74,West,262,5.0,5.0,65,0.00,CLR,,0.00,WeatherDisplay:10.37,2013-04-07 06:05:00,
2013-04-07 00:10:00,39.2,28.4,29.74,West,272,6.0,6.0,65,0.00,CLR,,0.00,WeatherDisplay:10.37,2013-04-07 06:10:00,
2013-04-07 00:15:00,39.2,28.8,29.74,West,261,5.8,5.8,66,0.00,CLR,,0.00,WeatherDisplay:10.37,2013-04-07 06:15:00,
2013-04-07 00:20:00,39.2,28.8,29.73,West,266,8.1,8.1,66,0.00,CLR,,0.00,WeatherDisplay:10.37,2013-04-07 06:20:00,
2013-04-07 00:25:00,39.3,28.9,29.73,WSW,238,8.1,8.1,66,0.00,CLR,,0.00,WeatherDisplay:10.37,2013-04-07 06:25:00,
2013-04-07 00:30:00,39.2,28.4,29.73,WSW,256,5.8,5.8,65,0.00,CLR,,0.00,WeatherDisplay:10.37,2013-04-07 06:30:00,
2013-04-07 00:35:00,39.2,28.4,29.73,West,272,3.5,3.5,65,0.00,CLR,,0.00,WeatherDisplay:10.37,2013-04-07 06:35:00,
2013-04-07 00:40:00,38.9,28.1,29.73,West,273,5.0,5.0,65,0.00,CLR,,0.00,WeatherDisplay:10.37,2013-04-07 06:40:00,
2013-04-07 00:45:00,38.8,28.4,29.73,SW,230,8.1,8.1,66,0.00,CLR,,0.00,WeatherDisplay:10.37,2013-04-07 06:45:00,
2013-04-07 00:50:00,39.2,28.4,29.73,WSW,251,5.0,5.0,65,0.00,CLR,,0.00,WeatherDisplay:10.37,2013-04-07 06:50:00,
2013-04-07 00:55:00,39.3,28.5,29.73,WSW,254,5.8,5.8,65,0.00,CLR,,0.00,WeatherDisplay:10.37,2013-04-07 06:55:00,
2013-04-07 01:00:00,39.5,28.7,29.73,West,266,6.9,6.9,65,0.00,CLR,,0.00,WeatherDisplay:10.37,2013-04-07 07:00:00,
2013-04-07 01:05:00,39.5,29.1,29.72,West,261,13.0,13.0,66,0.00,CLR,,0.00,WeatherDisplay:10.37,2013-04-07 07:05:00,
2013-04-07 01:10:00,38.9,29.9,29.72,WSW,241,10.0,10.0,70,0.00,CLR,,0.00,WeatherDisplay:10.37,2013-04-07 07:10:00,
2013-04-07 01:15:00,37.8,30.3,29.73,WSW,241,11.5,11.5,74,0.00,CLR,,0.00,WeatherDisplay:10.37,2013-04-07 07:15:00,
2013-04-07 01:20:00,37.0,30.5,29.73,SW,228,8.1,8.1,77,0.01,RA,,0.01,WeatherDisplay:10.37,2013-04-07 07:20:00,
2013-04-07 01:25:00,36.5,30.9,29.73,SW,214,6.9,6.9,80,0.01,RA,,0.01,WeatherDisplay:10.37,2013-04-07 07:25:00,
2013-04-07 01:30:00,36.0,30.7,29.73,SSW,210,2.3,2.3,81,0.01,CLR,,0.01,WeatherDisplay:10.37,2013-04-07 07:30:00,
2013-04-07 01:35:00,35.8,30.8,29.73,SW,224,4.6,4.6,82,0.01,CLR,,0.01,WeatherDisplay:10.37,2013-04-07 07:35:00,
2013-04-07 01:40:00,35.8,31.1,29.73,SW,224,0.0,0.0,83,0.01,CLR,,0.01,WeatherDisplay:10.37,2013-04-07 07:40:00,
2013-04-07 01:46:00,35.8,31.4,29.73,SW,225,3.5,3.5,84,0.01,CLR,,0.01,WeatherDisplay:10.37,2013-04-07 07:46:00,
2013-04-07 01:51:00,35.8,31.4,29.73,SSE,166,0.0,0.0,84,0.01,CLR,,0.01,WeatherDisplay:10.37,2013-04-07 07:51:00,
2013-04-07 01:56:00,35.6,31.2,29.73,SSE,151,2.3,0.0,84,0.01,CLR,,0.01,WeatherDisplay:10.37,2013-04-07 07:56:00,
2013-04-07 02:02:00,35.5,31.4,29.72,SSE,151,0.0,0.0,85,0.01,CLR,,0.01,WeatherDisplay:10.37,2013-04-07 08:02:00,
2013-04-07 02:07:00,35.5,31.4,29.72,SSW,203,1.2,1.2,85,0.01,CLR,,0.01,WeatherDisplay:10.37,2013-04-07 08:07:00,
2013-04-07 02:12:00,35.5,31.7,29.72,SSW,210,0.0,0.1,86,0.01,CLR,,0.01,WeatherDisplay:10.37,2013-04-07 08:12:00,
2013-04-07 02:17:00,35.5,31.7,29.73,SSW,210,1.2,1.2,86,0.01,CLR,,0.01,WeatherDisplay:10.37,2013-04-07 08:17:00,
2013-04-07 02:22:00,35.3,31.5,29.73,SSW,210,2.3,2.3,86,0.00,CLR,,0.01,WeatherDisplay:10.37,2013-04-07 08:22:00,
2013-04-07 02:27:00,35.3,31.5,29.73,SSW,211,3.5,3.5,86,0.00,CLR,,0.01,WeatherDisplay:10.37,2013-04-07 08:27:00,
2013-04-07 02:32:00,35.2,31.4,29.73,SSW,211,2.3,2.3,86,0.00,CLR,,0.01,WeatherDisplay:10.37,2013-04-07 08:32:00,
2013-04-07 02:37:00,35.2,31.4,29.73,SSW,211,2.3,2.3,86,0.00,CLR,,0.01,WeatherDisplay:10.37,2013-04-07 08:37:00,
2013-04-07 02:42:00,35.0,31.2,29.73,North,11,3.5,3.5,86,0.00,CLR,,0.01,WeatherDisplay:10.37,2013-04-07 08:42:00,
2013-04-07 02:47:00,34.9,31.4,29.73,NNE,12,0.0,0.0,87,0.00,CLR,,0.01,WeatherDisplay:10.37,2013-04-07 08:47:00,
2013-04-07 02:52:00,34.7,31.2,29.73,NNE,12,0.0,0.0,87,0.00,CLR,,0.01,WeatherDisplay:10.37,2013-04-07 08:52:00,
2013-04-07 02:57:00,34.4,30.9,29.73,NNE,12,0.0,0.0,87,0.00,CLR,,0.01,WeatherDisplay:10.37,2013-04-07 08:57:00,
2013-04-07 03:02:00,34.3,30.8,29.72,NNW,341,3.0,3.0,87,0.00,CLR,,0.01,WeatherDisplay:10.37,2013-04-07 09:02:00,
2013-04-07 03:07:00,34.1,30.6,29.72,NNW,340,3.5,3.5,87,0.00,CLR,,0.01,WeatherDisplay:10.37,2013-04-07 09:07:00,
2013-04-07 03:12:00,34.0,30.5,29.72,NNW,338,5.0,5.2,87,0.00,CLR,,0.01,WeatherDisplay:10.37,2013-04-07 09:12:00,
2013-04-07 03:17:00,33.5,30.0,29.70,NNW,338,3.5,3.5,87,0.00,CLR,,0.01,WeatherDisplay:10.37,2013-04-07 09:17:00,
2013-04-07 03:22:00,33.2,29.8,29.70,NNW,338,0.0,0.0,87,0.00,CLR,,0.01,WeatherDisplay:10.37,2013-04-07 09:22:00,
2013-04-07 03:27:00,33.1,29.7,29.70,NNW,338,3.5,3.5,87,0.00,CLR,,0.01,WeatherDisplay:10.37,2013-04-07 09:27:00,
2013-04-07 03:32:00,33.1,29.9,29.69,NNW,338,2.0,2.0,88,0.00,CLR,,0.01,WeatherDisplay:10.37,2013-04-07 09:32:00,
2013-04-07 03:37:00,33.1,29.9,29.69,NNW,338,3.5,3.5,88,0.00,CLR,,0.01,WeatherDisplay:10.37,2013-04-07 09:37:00,
2013-04-07 03:42:00,32.9,29.7,29.69,NNW,338,1.2,1.2,88,0.00,CLR,,0.01,WeatherDisplay:10.37,2013-04-07 09:42:00,
2013-04-07 03:47:00,32.8,29.6,29.68,West,271,5.0,5.0,88,0.00,CLR,,0.01,WeatherDisplay:10.37,2013-04-07 09:47:00,
2013-04-07 03:52:00,33.2,29.8,29.68,West,265,5.8,5.8,87,0.00,CLR,,0.01,WeatherDisplay:10.37,2013-04-07 09:52:00,
2013-04-07 03:57:00,33.8,29.2,29.68,WNW,290,10.4,10.4,83,0.00,CLR,,0.01,WeatherDisplay:10.37,2013-04-07 09:57:00,
2013-04-07 04:02:00,34.3,28.8,29.68,WNW,302,4.6,4.6,80,0.00,CLR,,0.01,WeatherDisplay:10.37,2013-04-07 10:02:00,
2013-04-07 04:07:00,34.6,28.4,29.68,WSW,254,8.1,8.1,78,0.00,CLR,,0.01,WeatherDisplay:10.37,2013-04-07 10:07:00,
2013-04-07 04:13:00,34.7,27.9,29.68,SW,217,3.5,3.5,76,0.00,CLR,,0.01,WeatherDisplay:10.37,2013-04-07 10:13:00,
2013-04-07 04:18:00,34.6,27.8,29.68,SW,217,3.5,3.5,76,0.00,CLR,,0.01,WeatherDisplay:10.37,2013-04-07 10:18:00,
2013-04-07 04:23:00,34.3,26.9,29.68,South,182,2.3,2.3,74,0.00,CLR,,0.01,WeatherDisplay:10.37,2013-04-07 10:23:00,
2013-04-07 04:28:00,34.0,26.6,29.68,South,182,2.3,2.3,74,0.00,CLR,,0.01,WeatherDisplay:10.37,2013-04-07 10:28:00,
2013-04-07 04:33:00,33.8,26.1,29.70,South,182,3.5,3.5,73,0.00,CLR,,0.01,WeatherDisplay:10.37,2013-04-07 10:33:00,
2013-04-07 04:38:00,33.5,25.8,29.70,SW,218,3.0,3.0,73,0.00,CLR,,0.01,WeatherDisplay:10.37,2013-04-07 10:38:00,
2013-04-07 04:43:00,33.7,25.6,29.70,SW,232,6.9,6.9,72,0.00,CLR,,0.01,WeatherDisplay:10.37,2013-04-07 10:43:00,
2013-04-07 04:48:00,35.6,25.0,29.68,WSW,240,11.5,11.5,65,0.00,CLR,,0.01,WeatherDisplay:10.37,2013-04-07 10:48:00,
2013-04-07 04:53:00,36.0,24.2,29.68,SW,216,1.2,1.2,62,0.00,CLR,,0.01,WeatherDisplay:10.37,2013-04-07 10:53:00,
2013-04-07 04:58:00,35.8,24.4,29.68,ENE,62,2.3,2.3,63,0.00,CLR,,0.01,WeatherDisplay:10.37,2013-04-07 10:58:00,
2013-04-07 05:03:00,36.2,22.4,29.69,West,262,12.7,12.7,57,0.00,CLR,,0.01,WeatherDisplay:10.37,2013-04-07 11:03:00,
2013-04-07 05:08:00,36.5,21.4,29.69,WNW,303,6.9,6.9,54,0.00,CLR,,0.01,WeatherDisplay:10.37,2013-04-07 11:08:00,
2013-04-07 05:13:00,37.0,21.9,29.69,West,273,6.0,6.0,54,0.00,CLR,,0.01,WeatherDisplay:10.37,2013-04-07 11:13:00,
2013-04-07 05:18:00,37.3,19.9,29.69,WSW,237,12.7,12.7,49,0.00,CLR,,0.01,WeatherDisplay:10.37,2013-04-07 11:18:00,
2013-04-07 05:23:00,37.5,20.5,29.69,WNW,300,4.6,4.6,50,0.00,CLR,,0.01,WeatherDisplay:10.37,2013-04-07 11:23:00,
2013-04-07 05:28:00,37.5,19.6,29.69,West,262,13.0,13.0,48,0.00,CLR,,0.01,WeatherDisplay:10.37,2013-04-07 11:28:00,
2013-04-07 05:33:00,37.6,19.7,29.69,WNW,296,4.6,4.6,48,0.00,CLR,,0.01,WeatherDisplay:10.37,2013-04-07 11:33:00,
2013-04-07 05:38:00,37.5,19.6,29.69,WNW,302,8.1,8.1,48,0.00,CLR,,0.01,WeatherDisplay:10.37,2013-04-07 11:38:00,
2013-04-07 05:43:00,37.3,19.4,29.69,West,276,13.8,13.8,48,0.00,CLR,,0.01,WeatherDisplay:10.37,2013-04-07 11:43:00,
2013-04-07 05:48:00,37.6,19.2,29.69,WNW,283,11.5,11.5,47,0.00,CLR,,0.01,WeatherDisplay:10.37,2013-04-07 11:48:00,
2013-04-07 05:53:00,37.6,18.7,29.69,WNW,295,16.1,16.1,46,0.00,CLR,,0.01,WeatherDisplay:10.37,2013-04-07 11:53:00,
2013-04-07 05:58:00,37.6,18.7,29.69,WSW,254,11.5,11.5,46,0.00,CLR,,0.01,WeatherDisplay:10.37,2013-04-07 11:58:00,
2013-04-07 06:03:00,37.8,18.3,29.69,NW,306,11.5,11.5,45,0.00,CLR,,0.01,WeatherDisplay:10.37,2013-04-07 12:03:00,
2013-04-07 06:08:00,37.5,19.1,29.69,West,278,5.8,5.8,47,0.00,CLR,,0.01,WeatherDisplay:10.37,2013-04-07 12:08:00,
2013-04-07 06:13:00,37.3,18.9,29.69,WSW,241,6.9,6.9,47,0.00,CLR,,0.01,WeatherDisplay:10.37,2013-04-07 12:13:00,
2013-04-07 06:18:00,37.3,18.9,29.72,WNW,290,5.0,5.0,47,0.00,CLR,,0.01,WeatherDisplay:10.37,2013-04-07 12:18:00,
2013-04-07 06:23:00,37.0,18.6,29.72,West,264,7.0,7.0,47,0.00,CLR,,0.01,WeatherDisplay:10.37,2013-04-07 12:23:00,
2013-04-07 06:28:00,36.9,19.0,29.72,WNW,295,11.5,11.5,48,0.00,CLR,,0.01,WeatherDisplay:10.37,2013-04-07 12:28:00,
2013-04-07 06:33:00,37.0,19.1,29.72,West,264,8.1,8.1,48,0.00,CLR,,0.01,WeatherDisplay:10.37,2013-04-07 12:33:00,
2013-04-07 06:38:00,37.2,18.8,29.72,WSW,242,17.0,17.0,47,0.00,CLR,,0.01,WeatherDisplay:10.37,2013-04-07 12:38:00,
2013-04-07 06:43:00,37.3,18.9,29.72,West,262,10.4,10.4,47,0.00,CLR,,0.01,WeatherDisplay:10.37,2013-04-07 12:43:00,
2013-04-07 06:48:00,37.9,18.4,29.72,WSW,249,18.4,18.4,45,0.00,CLR,,0.01,WeatherDisplay:10.37,2013-04-07 12:48:00,
2013-04-07 06:53:00,37.9,18.4,29.72,West,272,8.1,8.1,45,0.00,CLR,,0.01,WeatherDisplay:10.37,2013-04-07 12:53:00,
2013-04-07 06:59:00,38.0,19.0,29.72,West,271,13.8,13.8,46,0.00,CLR,,0.01,WeatherDisplay:10.37,2013-04-07 12:59:00,
2013-04-07 07:04:00,38.2,19.2,29.72,SW,216,8.1,8.1,46,0.00,CLR,,0.01,WeatherDisplay:10.37,2013-04-07 13:04:00,
2013-04-07 07:09:00,38.3,19.8,29.72,SW,228,17.3,17.3,47,0.00,CLR,,0.01,WeatherDisplay:10.37,2013-04-07 13:09:00,
2013-04-07 07:14:00,38.3,19.8,29.72,WSW,258,2.0,2.0,47,0.00,CLR,,0.01,WeatherDisplay:10.37,2013-04-07 13:14:00,
2013-04-07 07:19:00,38.6,19.1,29.74,West,259,8.0,8.0,45,0.00,CLR,,0.01,WeatherDisplay:10.37,2013-04-07 13:19:00,
2013-04-07 07:24:00,38.9,19.3,29.74,WSW,247,11.5,11.5,45,0.00,CLR,,0.01,WeatherDisplay:10.37,2013-04-07 13:24:00,
2013-04-07 07:29:00,39.1,19.5,29.74,West,266,10.4,10.4,45,0.00,CLR,,0.01,WeatherDisplay:10.37,2013-04-07 13:29:00,
2013-04-07 07:35:00,39.2,19.1,29.72,WNW,282,16.1,16.1,44,0.00,CLR,,0.01,WeatherDisplay:10.37,2013-04-07 13:35:00,
2013-04-07 07:40:00,39.3,19.7,29.72,WSW,255,11.0,11.0,45,0.00,CLR,,0.01,WeatherDisplay:10.37,2013-04-07 13:40:00,
2013-04-07 07:45:00,39.8,19.6,29.72,WNW,295,10.0,10.0,44,0.00,CLR,,0.01,WeatherDisplay:10.37,2013-04-07 13:45:00,
2013-04-07 07:50:00,40.2,19.5,29.71,WNW,288,10.0,10.0,43,0.00,CLR,,0.01,WeatherDisplay:10.37,2013-04-07 13:50:00,
2013-04-07 07:55:00,40.2,19.5,29.71,WNW,290,11.5,11.5,43,0.00,CLR,,0.01,WeatherDisplay:10.37,2013-04-07 13:55:00,
2013-04-07 08:00:00,40.1,19.9,29.71,West,269,8.1,8.1,44,0.00,CLR,,0.01,WeatherDisplay:10.37,2013-04-07 14:00:00,
2013-04-07 08:05:00,39.9,19.2,29.71,SW,225,14.0,14.0,43,0.00,CLR,,0.01,WeatherDisplay:10.37,2013-04-07 14:05:00,
2013-04-07 08:10:00,39.6,20.0,29.71,West,271,8.1,8.1,45,0.00,CLR,,0.01,WeatherDisplay:10.37,2013-04-07 14:10:00,
2013-04-07 08:15:00,39.5,19.9,29.72,WSW,258,6.9,6.9,45,0.00,CLR,,0.01,WeatherDisplay:10.37,2013-04-07 14:15:00,
2013-04-07 08:20:00,39.5,20.4,29.72,WSW,252,8.1,8.1,46,0.00,CLR,,0.01,WeatherDisplay:10.37,2013-04-07 14:20:00,
2013-04-07 08:25:00,39.6,19.5,29.72,West,280,12.7,12.7,44,0.00,CLR,,0.01,WeatherDisplay:10.37,2013-04-07 14:25:00,
2013-04-07 08:30:00,39.9,19.7,29.71,WNW,295,6.9,6.9,44,0.00,CLR,,0.01,WeatherDisplay:10.37,2013-04-07 14:30:00,
2013-04-07 08:36:00,40.2,20.0,29.71,SSW,204,5.8,5.8,44,0.00,CLR,,0.01,WeatherDisplay:10.37,2013-04-07 14:36:00,
2013-04-07 08:41:00,40.8,19.5,29.71,WNW,290,11.5,11.5,42,0.00,CLR,,0.01,WeatherDisplay:10.37,2013-04-07 14:41:00,
2013-04-07 08:47:00,40.9,19.0,29.69,WNW,293,12.0,12.0,41,0.00,CLR,,0.01,WeatherDisplay:10.37,2013-04-07 14:47:00,
2013-04-07 08:52:00,41.2,19.2,29.69,West,261,12.7,12.7,41,0.00,CLR,,0.01,WeatherDisplay:10.37,2013-04-07 14:52:00,
2013-04-07 08:57:00,41.3,19.9,29.69,WNW,290,6.0,6.0,42,0.00,CLR,,0.01,WeatherDisplay:10.37,2013-04-07 14:57:00,
2013-04-07 09:02:00,42.3,20.2,29.69,NW,324,10.0,10.0,41,0.00,CLR,,0.01,WeatherDisplay:10.37,2013-04-07 15:02:00,
2013-04-07 09:07:00,42.8,19.5,29.69,West,273,18.4,18.4,39,0.00,CLR,,0.01,WeatherDisplay:10.37,2013-04-07 15:07:00,
2013-04-07 09:12:00,43.2,19.3,29.69,WSW,256,17.3,17.3,38,0.00,CLR,,0.01,WeatherDisplay:10.37,2013-04-07 15:12:00,
2013-04-07 09:17:00,43.3,20.0,29.68,WSW,247,20.7,20.7,39,0.00,CLR,,0.01,WeatherDisplay:10.37,2013-04-07 15:17:00,
2013-04-07 09:22:00,43.8,21.0,29.68,SW,225,11.0,11.0,40,0.00,CLR,,0.01,WeatherDisplay:10.37,2013-04-07 15:22:00,
2013-04-07 09:27:00,44.1,19.5,29.68,SW,221,18.4,18.4,37,0.00,CLR,,0.01,WeatherDisplay:10.37,2013-04-07 15:27:00,
2013-04-07 09:32:00,44.1,18.2,29.68,West,268,17.3,17.3,35,0.00,CLR,,0.01,WeatherDisplay:10.37,2013-04-07 15:32:00,
2013-04-07 09:38:00,44.1,18.2,29.68,West,264,19.6,19.6,35,0.00,CLR,,0.01,WeatherDisplay:10.37,2013-04-07 15:38:00,
2013-04-07 09:43:00,44.3,19.0,29.68,SW,214,11.5,11.5,36,0.00,CLR,,0.01,WeatherDisplay:10.37,2013-04-07 15:43:00,
2013-04-07 09:48:00,45.2,21.1,29.67,WNW,300,11.5,11.5,38,0.00,CLR,,0.01,WeatherDisplay:10.37,2013-04-07 15:48:00,
2013-04-07 09:53:00,46.0,19.8,29.67,WNW,285,16.1,16.1,35,0.00,CLR,,0.01,WeatherDisplay:10.37,2013-04-07 15:53:00,
2013-04-07 09:58:00,45.1,20.3,29.67,West,259,25.3,25.3,37,0.00,CLR,,0.01,WeatherDisplay:10.37,2013-04-07 15:58:00,
2013-04-07 10:03:00,44.2,20.2,29.66,WSW,248,20.7,20.7,38,0.00,CLR,,0.01,WeatherDisplay:10.37,2013-04-07 16:03:00,
2013-04-07 10:08:00,44.5,21.0,29.66,SW,218,18.4,18.4,39,0.00,CLR,,0.01,WeatherDisplay:10.37,2013-04-07 16:08:00,
2013-04-07 10:13:00,44.6,20.5,29.66,SW,228,19.6,19.6,38,0.00,CLR,,0.01,WeatherDisplay:10.37,2013-04-07 16:13:00,
2013-04-07 10:18:00,45.8,21.6,29.64,WSW,238,17.0,17.0,38,0.00,CLR,,0.01,WeatherDisplay:10.37,2013-04-07 16:18:00,
2013-04-07 10:23:00,45.5,18.7,29.64,WSW,247,18.4,18.4,34,0.00,CLR,,0.01,WeatherDisplay:10.37,2013-04-07 16:23:00,
2013-04-07 10:28:00,46.0,18.5,29.64,SW,220,14.0,14.0,33,0.00,CLR,,0.01,WeatherDisplay:10.37,2013-04-07 16:28:00,
2013-04-07 10:33:00,46.1,18.6,29.65,ENE,64,13.0,13.0,33,0.00,CLR,,0.01,WeatherDisplay:10.37,2013-04-07 16:33:00,
2013-04-07 10:38:00,46.5,20.3,29.65,SW,232,7.0,7.0,35,0.00,CLR,,0.01,WeatherDisplay:10.37,2013-04-07 16:38:00,
2013-04-07 10:43:00,47.1,18.7,29.65,NW,319,13.8,13.8,32,0.00,CLR,,0.01,WeatherDisplay:10.37,2013-04-07 16:43:00,
2013-04-07 10:49:00,46.8,17.7,29.62,SW,221,19.6,19.6,31,0.00,CLR,,0.01,WeatherDisplay:10.37,2013-04-07 16:49:00,
2013-04-07 10:54:00,46.5,20.3,29.62,WSW,252,18.4,18.4,35,0.00,CLR,,0.01,WeatherDisplay:10.37,2013-04-07 16:54:00,
2013-04-07 10:59:00,46.2,19.3,29.62,SW,234,22.0,22.0,34,0.00,CLR,,0.01,WeatherDisplay:10.37,2013-04-07 16:59:00,
2013-04-07 11:04:00,46.2,19.3,29.64,SW,228,19.6,19.6,34,0.01,RA,,0.02,WeatherDisplay:10.37,2013-04-07 17:04:00,
2013-04-07 11:10:00,46.5,18.2,29.64,West,268,19.6,19.6,32,0.01,RA,,0.02,WeatherDisplay:10.37,2013-04-07 17:10:00,
2013-04-07 11:15:00,46.4,18.8,29.64,WSW,249,25.3,25.3,33,0.01,CLR,,0.02,WeatherDisplay:10.37,2013-04-07 17:15:00,
2013-04-07 11:20:00,46.5,17.4,29.66,WSW,247,20.0,20.0,31,0.01,CLR,,0.02,WeatherDisplay:10.37,2013-04-07 17:20:00,
2013-04-07 11:25:00,46.7,18.4,29.66,SW,230,24.2,24.2,32,0.01,CLR,,0.02,WeatherDisplay:10.37,2013-04-07 17:25:00,
2013-04-07 11:30:00,47.3,18.9,29.65,WSW,248,22.0,22.0,32,0.01,CLR,,0.02,WeatherDisplay:10.37,2013-04-07 17:30:00,
2013-04-07 11:35:00,47.1,19.4,29.65,SW,214,17.3,17.3,33,0.01,CLR,,0.02,WeatherDisplay:10.37,2013-04-07 17:35:00,
2013-04-07 11:40:00,47.0,19.3,29.65,SSW,196,25.3,25.3,33,0.01,CLR,,0.02,WeatherDisplay:10.37,2013-04-07 17:40:00,
2013-04-07 11:45:00,46.8,21.2,29.66,West,259,25.3,25.3,36,0.01,CLR,,0.02,WeatherDisplay:10.37,2013-04-07 17:45:00,
2013-04-07 11:50:00,47.4,21.1,29.66,SW,235,20.0,20.0,35,0.01,CLR,,0.02,WeatherDisplay:10.37,2013-04-07 17:50:00,
2013-04-07 11:55:00,47.3,20.3,29.66,WSW,256,25.3,25.3,34,0.01,CLR,,0.02,WeatherDisplay:10.37,2013-04-07 17:55:00,
2013-04-07 12:00:00,47.6,21.3,29.63,SW,221,22.0,22.0,35,0.01,CLR,,0.02,WeatherDisplay:10.37,2013-04-07 18:00:00,
2013-04-07 12:05:00,47.4,20.4,29.63,SW,224,21.9,21.9,34,0.00,CLR,,0.02,WeatherDisplay:10.37,2013-04-07 18:05:00,
2013-04-07 12:10:00,48.0,21.6,29.63,West,264,24.2,24.2,35,0.00,CLR,,0.02,WeatherDisplay:10.37,2013-04-07 18:10:00,
2013-04-07 12:15:00,47.7,20.0,29.62,SW,223,20.7,20.7,33,0.00,CLR,,0.02,WeatherDisplay:10.37,2013-04-07 18:15:00,
2013-04-07 12:20:00,48.2,21.8,29.62,WSW,249,24.0,24.0,35,0.00,CLR,,0.02,WeatherDisplay:10.37,2013-04-07 18:20:00,
2013-04-07 12:25:00,48.0,20.9,29.62,SW,227,21.9,21.9,34,0.00,CLR,,0.02,WeatherDisplay:10.37,2013-04-07 18:25:00,
2013-04-07 12:31:00,48.6,20.0,29.61,SW,225,20.7,20.7,32,0.00,CLR,,0.02,WeatherDisplay:10.37,2013-04-07 18:31:00,
2013-04-07 12:36:00,47.9,19.4,29.61,WSW,238,24.2,24.2,32,0.00,CLR,,0.02,WeatherDisplay:10.37,2013-04-07 18:36:00,
2013-04-07 12:41:00,48.6,20.8,29.61,WSW,241,24.2,24.2,33,0.00,CLR,,0.02,WeatherDisplay:10.37,2013-04-07 18:41:00,
2013-04-07 12:46:00,48.2,20.4,29.61,SW,228,25.3,25.3,33,0.00,CLR,,0.02,WeatherDisplay:10.37,2013-04-07 18:46:00,
2013-04-07 12:51:00,48.0,20.2,29.61,SSW,206,25.3,25.3,33,0.00,CLR,,0.02,WeatherDisplay:10.37,2013-04-07 18:51:00,
2013-04-07 12:56:00,48.0,20.9,29.61,WSW,238,19.6,19.6,34,0.00,CLR,,0.02,WeatherDisplay:10.37,2013-04-07 18:56:00,
2013-04-07 13:02:00,49.1,20.5,29.60,SW,216,25.3,25.3,32,0.00,CLR,,0.02,WeatherDisplay:10.37,2013-04-07 19:02:00,
2013-04-07 13:07:00,49.1,21.2,29.60,WSW,256,24.2,24.2,33,0.00,CLR,,0.02,WeatherDisplay:10.37,2013-04-07 19:07:00,
2013-04-07 13:12:00,48.9,21.7,29.60,SW,214,20.7,20.7,34,0.00,CLR,,0.02,WeatherDisplay:10.37,2013-04-07 19:12:00,
2013-04-07 13:17:00,48.5,21.4,29.65,SW,224,31.1,31.1,34,0.00,CLR,,0.02,WeatherDisplay:10.37,2013-04-07 19:17:00,
2013-04-07 13:22:00,43.9,24.4,29.65,SW,214,19.6,19.6,46,0.00,,,0.02,WeatherDisplay:10.37,2013-04-07 19:22:00,
2013-04-07 13:27:00,42.2,27.6,29.65,WSW,242,28.8,28.8,56,0.00,,,0.02,WeatherDisplay:10.37,2013-04-07 19:27:00,
2013-04-07 13:32:00,41.2,27.9,29.72,SSW,196,26.5,26.5,59,0.00,CLR,,0.02,WeatherDisplay:10.37,2013-04-07 19:32:00,
2013-04-07 13:37:00,39.6,29.5,29.72,SW,223,19.6,19.6,67,0.00,CLR,,0.02,WeatherDisplay:10.37,2013-04-07 19:37:00,
2013-04-07 13:42:00,39.5,30.9,29.72,West,268,12.7,12.7,71,0.00,CLR,,0.02,WeatherDisplay:10.37,2013-04-07 19:42:00,
2013-04-07 13:47:00,39.3,32.4,29.73,NW,304,10.4,10.4,76,0.00,CLR,,0.02,WeatherDisplay:10.37,2013-04-07 19:47:00,
2013-04-07 13:52:00,40.2,34.2,29.73,NNW,328,5.8,5.8,79,0.00,CLR,,0.02,WeatherDisplay:10.37,2013-04-07 19:52:00,
2013-04-07 13:57:00,41.3,34.3,29.73,NNW,348,5.8,5.8,76,0.00,CLR,,0.02,WeatherDisplay:10.37,2013-04-07 19:57:00,
2013-04-07 14:02:00,43.1,34.0,29.67,West,266,5.8,5.8,70,0.00,CLR,,0.02,WeatherDisplay:10.37,2013-04-07 20:02:00,
2013-04-07 14:07:00,44.9,31.8,29.67,NNW,345,4.6,4.6,60,0.00,CLR,,0.02,WeatherDisplay:10.37,2013-04-07 20:07:00,
2013-04-07 14:13:00,46.0,28.9,29.67,West,259,19.6,19.6,51,0.00,CLR,,0.02,WeatherDisplay:10.37,2013-04-07 20:13:00,
2013-04-07 14:18:00,46.4,27.2,29.65,West,261,20.7,20.7,47,0.00,CLR,,0.02,WeatherDisplay:10.37,2013-04-07 20:18:00,
2013-04-07 14:23:00,48.2,27.8,29.65,WNW,297,8.1,8.1,45,0.00,CLR,,0.02,WeatherDisplay:10.37,2013-04-07 20:23:00,
2013-04-07 14:28:00,48.8,24.9,29.65,West,280,12.7,12.7,39,0.00,CLR,,0.02,WeatherDisplay:10.37,2013-04-07 20:28:00,
2013-04-07 14:33:00,49.1,24.6,29.63,WSW,249,14.0,14.0,38,0.00,CLR,,0.02,WeatherDisplay:10.37,2013-04-07 20:33:00,
2013-04-07 14:38:00,49.9,25.3,29.63,SW,221,24.2,24.2,38,0.00,CLR,,0.02,WeatherDisplay:10.37,2013-04-07 20:38:00,
2013-04-07 14:43:00,49.8,25.2,29.63,WNW,302,25.3,25.3,38,0.00,CLR,,0.02,WeatherDisplay:10.37,2013-04-07 20:43:00,
2013-04-07 14:48:00,49.8,21.8,29.60,WSW,258,20.7,20.7,33,0.00,CLR,,0.02,WeatherDisplay:10.37,2013-04-07 20:48:00,
2013-04-07 14:53:00,49.2,22.7,29.60,SW,221,25.3,25.3,35,0.00,CLR,,0.02,WeatherDisplay:10.37,2013-04-07 20:53:00,
2013-04-07 14:58:00,49.2,24.0,29.60,WSW,244,24.2,24.2,37,0.00,CLR,,0.02,WeatherDisplay:10.37,2013-04-07 20:58:00,
2013-04-07 15:03:00,49.1,23.9,29.62,WNW,283,18.0,18.0,37,0.00,CLR,,0.02,WeatherDisplay:10.37,2013-04-07 21:03:00,
2013-04-07 15:08:00,48.9,25.0,29.62,West,275,16.1,16.1,39,0.00,CLR,,0.02,WeatherDisplay:10.37,2013-04-07 21:08:00,
2013-04-07 15:14:00,49.5,24.3,29.62,WSW,256,24.2,24.2,37,0.00,CLR,,0.02,WeatherDisplay:10.37,2013-04-07 21:14:00,
2013-04-07 15:19:00,49.4,22.9,29.62,WSW,247,19.6,19.6,35,0.00,CLR,,0.02,WeatherDisplay:10.37,2013-04-07 21:19:00,
2013-04-07 15:25:00,49.8,22.5,29.62,WSW,252,16.1,16.1,34,0.00,CLR,,0.02,WeatherDisplay:10.37,2013-04-07 21:25:00,
2013-04-07 15:30:00,49.9,21.9,29.62,NW,313,19.6,19.6,33,0.00,CLR,,0.02,WeatherDisplay:10.37,2013-04-07 21:30:00,
2013-04-07 15:35:00,49.8,22.5,29.60,WSW,247,17.3,17.3,34,0.00,CLR,,0.02,WeatherDisplay:10.37,2013-04-07 21:35:00,
2013-04-07 15:40:00,49.2,20.6,29.60,WSW,248,24.2,24.2,32,0.00,CLR,,0.02,WeatherDisplay:10.37,2013-04-07 21:40:00,
2013-04-07 15:45:00,46.4,21.5,29.60,SW,230,26.5,26.5,37,0.00,CLR,,0.02,WeatherDisplay:10.37,2013-04-07 21:45:00,
2013-04-07 15:50:00,46.8,21.9,29.63,SW,231,24.2,24.2,37,0.00,CLR,,0.02,WeatherDisplay:10.37,2013-04-07 21:50:00,
2013-04-07 15:55:00,46.5,20.3,29.63,WSW,254,21.9,21.9,35,0.00,CLR,,0.02,WeatherDisplay:10.37,2013-04-07 21:55:00,
2013-04-07 16:00:00,46.1,20.6,29.64,WSW,254,18.4,18.4,36,0.00,CLR,,0.02,WeatherDisplay:10.37,2013-04-07 22:00:00,
2013-04-07 16:05:00,46.0,20.5,29.64,SW,218,21.0,21.0,36,0.00,CLR,,0.02,WeatherDisplay:10.37,2013-04-07 22:05:00,
2013-04-07 16:10:00,45.4,20.6,29.64,WSW,249,19.6,19.6,37,0.00,CLR,,0.02,WeatherDisplay:10.37,2013-04-07 22:10:00,
2013-04-07 16:15:00,45.4,21.9,29.64,SW,232,19.6,19.6,39,0.00,CLR,,0.02,WeatherDisplay:10.37,2013-04-07 22:15:00,
2013-04-07 16:20:00,44.9,23.7,29.64,West,266,21.0,21.0,43,0.00,CLR,,0.02,WeatherDisplay:10.37,2013-04-07 22:20:00,
2013-04-07 16:25:00,43.3,26.4,29.64,West,259,17.3,17.3,51,0.00,CLR,,0.02,WeatherDisplay:10.37,2013-04-07 22:25:00,
2013-04-07 16:30:00,42.6,27.1,29.67,WSW,251,16.1,16.1,54,0.00,CLR,,0.02,WeatherDisplay:10.37,2013-04-07 22:30:00,
2013-04-07 16:35:00,42.3,27.7,29.67,SW,221,10.4,10.4,56,0.00,CLR,,0.02,WeatherDisplay:10.37,2013-04-07 22:35:00,
2013-04-07 16:40:00,42.3,27.7,29.67,SW,230,7.0,7.0,56,0.00,CLR,,0.02,WeatherDisplay:10.37,2013-04-07 22:40:00,
2013-04-07 16:45:00,42.5,28.3,29.67,WSW,252,8.1,8.1,57,0.00,CLR,,0.02,WeatherDisplay:10.37,2013-04-07 22:45:00,
2013-04-07 16:50:00,42.3,28.1,29.67,SW,228,16.1,16.1,57,0.00,CLR,,0.02,WeatherDisplay:10.37,2013-04-07 22:50:00,
2013-04-07 16:55:00,41.1,30.2,29.67,West,275,17.3,17.3,65,0.00,CLR,,0.02,WeatherDisplay:10.37,2013-04-07 22:55:00,
2013-04-07 17:01:00,40.6,30.1,29.69,SW,224,12.7,12.7,66,0.00,CLR,,0.02,WeatherDisplay:10.37,2013-04-07 23:01:00,
2013-04-07 17:06:00,40.6,30.5,29.69,SSW,211,12.7,12.7,67,0.00,CLR,,0.02,WeatherDisplay:10.37,2013-04-07 23:06:00,
2013-04-07 17:11:00,40.8,29.9,29.69,SW,221,19.6,19.6,65,0.00,CLR,,0.02,WeatherDisplay:10.37,2013-04-07 23:11:00,
2013-04-07 17:17:00,41.2,29.5,29.68,West,265,18.4,18.4,63,0.00,CLR,,0.02,WeatherDisplay:10.37,2013-04-07 23:17:00,
2013-04-07 17:22:00,41.3,29.6,29.68,WSW,252,12.7,12.7,63,0.00,CLR,,0.02,WeatherDisplay:10.37,2013-04-07 23:22:00,
2013-04-07 17:27:00,40.8,28.8,29.68,WSW,237,18.4,18.4,62,0.00,CLR,,0.02,WeatherDisplay:10.37,2013-04-07 23:27:00,
2013-04-07 17:32:00,40.8,28.4,29.67,SW,225,10.4,10.4,61,0.00,CLR,,0.02,WeatherDisplay:10.37,2013-04-07 23:32:00,
2013-04-07 17:37:00,41.2,27.9,29.67,WSW,249,5.8,5.8,59,0.00,CLR,,0.02,WeatherDisplay:10.37,2013-04-07 23:37:00,
2013-04-07 17:42:00,41.3,28.4,29.67,WNW,286,5.8,5.8,60,0.00,CLR,,0.02,WeatherDisplay:10.37,2013-04-07 23:42:00,
2013-04-07 17:47:00,41.5,28.2,29.65,West,272,5.0,5.0,59,0.00,CLR,,0.02,WeatherDisplay:10.37,2013-04-07 23:47:00,
2013-04-07 17:52:00,41.8,28.9,29.65,SW,235,6.9,6.9,60,0.00,CLR,,0.02,WeatherDisplay:10.37,2013-04-07 23:52:00,
2013-04-07 17:57:00,42.1,28.4,29.65,SSW,211,5.8,5.8,58,0.00,CLR,,0.02,WeatherDisplay:10.37,2013-04-07 23:57:00,
2013-04-07 18:02:00,42.3,28.1,29.64,WSW,237,6.9,6.9,57,0.00,CLR,,0.02,WeatherDisplay:10.37,2013-04-08 00:02:00,
2013-04-07 18:07:00,42.6,28.0,29.64,WSW,237,6.9,6.9,56,0.00,CLR,,0.02,WeatherDisplay:10.37,2013-04-08 00:07:00,
2013-04-07 18:12:00,42.9,26.9,29.64,West,280,6.9,6.9,53,0.00,CLR,,0.02,WeatherDisplay:10.37,2013-04-08 00:12:00,
2013-04-07 18:17:00,43.3,27.8,29.64,SW,230,8.1,8.1,54,0.00,CLR,,0.02,WeatherDisplay:10.37,2013-04-08 00:17:00,
2013-04-07 18:22:00,43.8,26.3,29.64,West,266,10.4,10.4,50,0.00,CLR,,0.02,WeatherDisplay:10.37,2013-04-08 00:22:00,
2013-04-07 18:27:00,44.1,25.6,29.64,SW,231,10.4,10.4,48,0.00,CLR,,0.02,WeatherDisplay:10.37,2013-04-08 00:27:00,
2013-04-07 18:32:00,44.3,25.3,29.61,WSW,240,8.1,8.1,47,0.00,CLR,,0.02,WeatherDisplay:10.37,2013-04-08 00:32:00,
2013-04-07 18:37:00,44.3,25.3,29.61,West,269,6.9,7.2,47,0.00,CLR,,0.02,WeatherDisplay:10.37,2013-04-08 00:37:00,
2013-04-07 18:42:00,44.6,23.5,29.61,SW,230,17.3,17.3,43,0.00,CLR,,0.02,WeatherDisplay:10.37,2013-04-08 00:42:00,
2013-04-07 18:47:00,44.5,24.5,29.61,WSW,252,12.0,12.0,45,0.00,CLR,,0.02,WeatherDisplay:10.37,2013-04-08 00:47:00,
2013-04-07 18:52:00,44.6,24.0,29.61,WSW,242,12.7,12.7,44,0.00,CLR,,0.02,WeatherDisplay:10.37,2013-04-08 00:52:00,
2013-04-07 18:57:00,44.9,23.7,29.61,WSW,255,11.5,11.5,43,0.00,CLR,,0.02,WeatherDisplay:10.37,2013-04-08 00:57:00,
2013-04-07 19:02:00,44.9,23.2,29.61,WSW,248,11.5,11.5,42,0.00,CLR,,0.02,WeatherDisplay:10.37,2013-04-08 01:02:00,
2013-04-07 19:07:00,44.9,23.2,29.61,SW,230,17.3,17.3,42,0.00,CLR,,0.02,WeatherDisplay:10.37,2013-04-08 01:07:00,
2013-04-07 19:12:00,44.6,24.0,29.61,SW,218,12.7,12.7,44,0.00,CLR,,0.02,WeatherDisplay:10.37,2013-04-08 01:12:00,
2013-04-07 19:17:00,43.5,27.0,29.60,SW,216,20.7,20.7,52,0.00,CLR,,0.02,WeatherDisplay:10.37,2013-04-08 01:17:00,
2013-04-07 19:22:00,41.3,28.9,29.60,SSW,206,19.6,19.6,61,0.00,CLR,,0.02,WeatherDisplay:10.37,2013-04-08 01:22:00,
2013-04-07 19:27:00,40.5,29.7,29.60,SW,227,12.7,12.7,65,0.00,CLR,,0.02,WeatherDisplay:10.37,2013-04-08 01:27:00,
2013-04-07 19:32:00,39.9,30.2,29.64,South,190,17.3,17.3,68,0.00,CLR,,0.02,WeatherDisplay:10.37,2013-04-08 01:32:00,
2013-04-07 19:37:00,39.2,30.2,29.64,SSW,213,13.0,13.0,70,0.00,CLR,,0.02,WeatherDisplay:10.37,2013-04-08 01:37:00,
2013-04-07 19:42:00,38.9,31.0,29.64,SW,235,11.5,11.5,73,0.00,CLR,,0.02,WeatherDisplay:10.37,2013-04-08 01:42:00,
2013-04-07 19:47:00,38.8,31.2,29.66,SW,234,8.1,8.1,74,0.00,CLR,,0.02,WeatherDisplay:10.37,2013-04-08 01:47:00,
2013-04-07 19:53:00,38.6,31.4,29.66,WSW,241,10.4,10.4,75,0.00,CLR,,0.02,WeatherDisplay:10.37,2013-04-08 01:53:00,
2013-04-07 19:58:00,38.6,31.4,29.66,West,269,10.4,10.4,75,0.00,CLR,,0.02,WeatherDisplay:10.37,2013-04-08 01:58:00,
2013-04-07 20:03:00,38.5,31.6,29.66,SW,232,6.9,6.9,76,0.00,CLR,,0.02,WeatherDisplay:10.37,2013-04-08 02:03:00,
2013-04-07 20:08:00,38.5,31.6,29.66,SW,232,10.4,10.4,76,0.00,CLR,,0.02,WeatherDisplay:10.37,2013-04-08 02:08:00,
2013-04-07 20:13:00,39.3,29.6,29.66,WSW,252,19.6,19.6,68,0.00,CLR,,0.02,WeatherDisplay:10.37,2013-04-08 02:13:00,
2013-04-07 20:18:00,40.8,28.4,29.61,West,276,19.6,19.6,61,0.00,CLR,,0.02,WeatherDisplay:10.37,2013-04-08 02:18:00,
2013-04-07 20:23:00,40.9,28.1,29.61,SW,221,7.0,7.0,60,0.00,CLR,,0.02,WeatherDisplay:10.37,2013-04-08 02:23:00,
2013-04-07 20:28:00,40.9,28.1,29.61,WNW,285,11.5,11.5,60,0.00,CLR,,0.02,WeatherDisplay:10.37,2013-04-08 02:28:00,
2013-04-07 20:33:00,41.2,27.1,29.62,West,265,6.9,6.9,57,0.00,CLR,,0.02,WeatherDisplay:10.37,2013-04-08 02:33:00,
2013-04-07 20:38:00,41.5,27.4,29.62,West,265,6.0,6.0,57,0.00,CLR,,0.02,WeatherDisplay:10.37,2013-04-08 02:38:00,
2013-04-07 20:43:00,41.8,26.4,29.62,West,262,26.0,26.0,54,0.00,CLR,,0.02,WeatherDisplay:10.37,2013-04-08 02:43:00,
2013-04-07 20:48:00,42.2,26.7,29.62,SW,225,17.3,17.3,54,0.00,CLR,,0.02,WeatherDisplay:10.37,2013-04-08 02:48:00,
2013-04-07 20:53:00,41.8,27.2,29.62,WNW,296,16.1,16.1,56,0.00,CLR,,0.02,WeatherDisplay:10.37,2013-04-08 02:53:00,
2013-04-07 20:58:00,41.2,27.1,29.62,West,264,16.1,16.1,57,0.00,CLR,,0.02,WeatherDisplay:10.37,2013-04-08 02:58:00,
2013-04-07 21:03:00,40.9,27.2,29.64,SW,234,11.5,11.5,58,0.00,CLR,,0.02,WeatherDisplay:10.37,2013-04-08 03:03:00,
2013-04-07 21:09:00,40.5,28.1,29.64,WSW,241,12.7,12.7,61,0.00,CLR,,0.02,WeatherDisplay:10.37,2013-04-08 03:09:00,
2013-04-07 21:14:00,40.2,28.6,29.64,WSW,241,8.1,8.1,63,0.00,CLR,,0.02,WeatherDisplay:10.37,2013-04-08 03:14:00,
2013-04-07 21:19:00,40.1,28.9,29.62,SW,234,8.1,8.1,64,0.00,CLR,,0.02,WeatherDisplay:10.37,2013-04-08 03:19:00,
2013-04-07 21:24:00,40.1,28.9,29.62,SW,228,6.9,6.9,64,0.00,CLR,,0.02,WeatherDisplay:10.37,2013-04-08 03:24:00,
2013-04-07 21:29:00,40.6,27.8,29.62,WSW,238,12.7,12.7,60,0.00,CLR,,0.02,WeatherDisplay:10.37,2013-04-08 03:29:00,
2013-04-07 21:34:00,41.5,27.0,29.61,WSW,249,6.9,6.9,56,0.00,CLR,,0.02,WeatherDisplay:10.37,2013-04-08 03:34:00,
2013-04-07 21:40:00,41.8,26.4,29.61,SSW,203,8.0,8.0,54,0.00,CLR,,0.02,WeatherDisplay:10.37,2013-04-08 03:40:00,
2013-04-07 21:45:00,41.3,27.2,29.60,SW,232,8.1,8.1,57,0.00,CLR,,0.02,WeatherDisplay:10.37,2013-04-08 03:45:00,
2013-04-07 21:50:00,40.9,27.2,29.60,SW,216,8.1,8.1,58,0.00,CLR,,0.02,WeatherDisplay:10.37,2013-04-08 03:50:00,
2013-04-07 21:55:00,40.8,27.6,29.60,SSW,208,12.7,12.7,59,0.00,CLR,,0.02,WeatherDisplay:10.37,2013-04-08 03:55:00,
2013-04-07 22:00:00,40.3,27.5,29.60,SSW,204,10.4,10.4,60,0.00,CLR,,0.02,WeatherDisplay:10.37,2013-04-08 04:00:00,
2013-04-07 22:05:00,40.1,27.3,29.62,SW,235,10.4,10.4,60,0.00,CLR,,0.02,WeatherDisplay:10.37,2013-04-08 04:05:00,
2013-04-07 22:10:00,39.8,27.4,29.62,SW,231,8.1,8.1,61,0.00,CLR,,0.02,WeatherDisplay:10.37,2013-04-08 04:10:00,
2013-04-07 22:15:00,39.6,27.2,29.62,SW,225,6.9,6.9,61,0.00,CLR,,0.02,WeatherDisplay:10.37,2013-04-08 04:15:00,
2013-04-07 22:20:00,39.6,27.2,29.59,WSW,249,10.4,10.4,61,0.00,CLR,,0.02,WeatherDisplay:10.37,2013-04-08 04:20:00,
2013-04-07 22:25:00,39.9,26.7,29.59,SW,228,11.5,11.5,59,0.00,CLR,,0.02,WeatherDisplay:10.37,2013-04-08 04:25:00,
2013-04-07 22:30:00,41.1,26.1,29.59,SSW,213,10.0,10.0,55,0.00,CLR,,0.02,WeatherDisplay:10.37,2013-04-08 04:30:00,
2013-04-07 22:35:00,41.5,25.6,29.59,West,273,11.5,11.5,53,0.00,CLR,,0.02,WeatherDisplay:10.37,2013-04-08 04:35:00,
2013-04-07 22:40:00,41.8,25.0,29.59,West,272,5.8,5.8,51,0.00,CLR,,0.02,WeatherDisplay:10.37,2013-04-08 04:40:00,
2013-04-07 22:45:00,42.2,24.9,29.57,WNW,286,16.1,16.1,50,0.00,CLR,,0.02,WeatherDisplay:10.37,2013-04-08 04:45:00,
2013-04-07 22:50:00,42.5,24.7,29.57,West,275,14.0,14.0,49,0.00,CLR,,0.02,WeatherDisplay:10.37,2013-04-08 04:50:00,
2013-04-07 22:55:00,42.8,24.4,29.57,West,273,11.5,11.5,48,0.00,CLR,,0.02,WeatherDisplay:10.37,2013-04-08 04:55:00,
2013-04-07 23:00:00,42.9,24.0,29.57,West,280,10.4,10.4,47,0.00,CLR,,0.02,WeatherDisplay:10.37,2013-04-08 05:00:00,
2013-04-07 23:05:00,43.1,24.2,29.57,SW,234,8.1,8.1,47,0.00,CLR,,0.02,WeatherDisplay:10.37,2013-04-08 05:05:00,
2013-04-07 23:10:00,43.1,23.7,29.57,WSW,256,6.0,6.0,46,0.00,CLR,,0.02,WeatherDisplay:10.37,2013-04-08 05:10:00,
2013-04-07 23:15:00,43.3,23.4,29.58,WSW,258,13.0,13.0,45,0.00,CLR,,0.02,WeatherDisplay:10.37,2013-04-08 05:15:00,
2013-04-07 23:20:00,43.2,24.8,29.58,SW,234,25.3,25.3,48,0.00,CLR,,0.02,WeatherDisplay:10.37,2013-04-08 05:20:00,
2013-04-07 23:25:00,41.1,25.3,29.58,SW,223,31.1,31.1,53,0.00,,,0.02,WeatherDisplay:10.37,2013-04-08 05:25:00,
2013-04-07 23:30:00,39.3,27.7,29.63,West,275,25.3,25.3,63,0.00,CLR,,0.02,WeatherDisplay:10.37,2013-04-08 05:30:00,
2013-04-07 23:35:00,37.9,28.6,29.63,SSW,196,24.2,24.2,69,0.00,CLR,,0.02,WeatherDisplay:10.37,2013-04-08 05:35:00,
2013-04-07 23:40:00,37.0,29.1,29.63,SW,223,16.1,16.1,73,0.00,CLR,,0.03,WeatherDisplay:10.37,2013-04-08 05:40:00,
2013-04-07 23:45:00,36.8,29.6,29.62,WSW,244,10.4,10.4,75,0.01,RA,,0.03,WeatherDisplay:10.37,2013-04-08 05:45:00,
2013-04-07 23:51:00,36.3,29.5,29.62,WSW,242,4.6,4.6,76,0.01,,,0.03,WeatherDisplay:10.37,2013-04-08 05:51:00,
2013-04-07 23:56:00,36.2,29.7,29.62,SW,218,4.6,4.6,77,0.01,CLR,,0.03,WeatherDisplay:10.37,2013-04-08 05:56:00,